Preview of NWS' New Version of Forecast
This preview is not operational and should not be used for support decisions.

Regional Weather Roundup (RWR)

Issued by National Weather Service (NWS)

                            
000
ASUS42 KTBW 190315
RWRFL 
FLORIDA REGIONAL WEATHER ROUNDUP
NATIONAL WEATHER SERVICE TAMPA BAY RUSKIN FL
1100 PM EDT THU APR 18 2019

NOTE: "FAIR" INDICATES FEW OR NO CLOUDS BELOW 12,000 FEET WITH NO
SIGNIFICANT WEATHER AND/OR OBSTRUCTIONS TO VISIBILITY.

FLZ001>010-012>015-112-114-115-190400-
PANHANDLE FLORIDA
  
CITY           SKY/WX    TMP DP  RH WIND       PRES   REMARKS
PENSACOLA      MOCLDY    74  74 100 S24G35    29.67F                  
PENSACOLA NAS  LGT RAIN  74  73  97 S28G36    29.67F FOG              
MILTON NAS     CLOUDY    73  73 100 S26G43    29.65                   
CRESTVIEW      CLOUDY    73  71  93 S12G21    29.73F                  
DUKE FIELD     CLOUDY    73  73 100 S18G24    29.73F                  
VALPARAISO     CLOUDY    73  73 100 SE17G23   29.74F                  
MARY ESTHER    CLOUDY    72  70  92 SE10      29.72F                  
PANAMA CITY    CLOUDY    75  71  87 SE13G24   29.80R                  
TYNDALL AFB    CLOUDY    74  72  92 S22G28    29.80S                  
APALACHICOLA   CLOUDY    73  71  93 S18       29.83F                  

STATION/POSITION SKY/WX   TEMP    WIND        PRES    WAVE   SWELL
                          AIR SEA DIR/SP/G            HT/PER HT/PER
                          (F)     (DEG/KT/KT) (MB)    (FT/S) (FT/S)
30.1N   87.6W              73     140/ 29/ 43 1003.9F   6/ 7
29.2N   88.2W                     160/ 25/ 37 1004.9
PANAMA CITY BEAC           73 73  160/ 20/ 23 1009.5R
TOWER C          NOT AVBL

$$
FLZ011-016>038-118-127-128-134-139-239-190400-
NORTH FLORIDA
  
CITY           SKY/WX    TMP DP  RH WIND       PRES   REMARKS
MARIANNA       CLOUDY    75  69  81 S10       29.81S                  
TALLAHASSEE    CLOUDY    74  71  91 S8        29.86F                  
PERRY          FAIR      73  70  92 S3        29.89F                  
LIVE OAK       PTCLDY    72  66  83 CALM      29.89F                  
CROSS CITY     FAIR      68  66  94 S3        29.89F                  
LAKE CITY      FAIR      64  59  82 CALM      29.91F                  
GAINESVILLE    FAIR      71  62  73 CALM      29.93F                  
PALATKA        CLOUDY    75  68  78 W15       29.94S                  
MAYPORT NAS    CLOUDY    74  71  91 S12       29.92F                  
JACKSONVILLE   MOCLDY    75  70  84 S7        29.91F                  
JAX NAS        MOCLDY    78  69  73 S10       29.93S                  
JAX CECIL      CLEAR     73  70  88 SE6       29.92F                  
FERNANDINA BEA FAIR      74  71  92 S10G20    29.93S                  
ST AUGUSTINE   FAIR      76  72  87 S15       29.93F                  
PALM COAST     FAIR      75  70  83 SE9       29.92F                  

STATION/POSITION SKY/WX   TEMP    WIND        PRES    WAVE   SWELL
                          AIR SEA DIR/SP/G            HT/PER HT/PER
                          (F)     (DEG/KT/KT) (MB)    (FT/S) (FT/S)
SHELL POINT      NOT AVBL
KEATON BEACH               75     180/ 11/ 13 1011.8F
CEDAR KEY                  76     230/  9/ 12 1012.7R
FERNANDINA                 75 70  150/ 11/ 14 1014.0F
30.7N   81.3W                 69                N/A     4/ 6
MAYPORT                    74 70  160/  8/ 12 1013.5F
31.4N   80.9W              72 68  160/ 16/ 17 1013.0F   3/ 6   2/ 8
ST AUGUSTINE               75 75  150/ 18/ 20 1013.1F

$$
FLZ040-043>046-052-053-057-058-063-144-190400-
INTERIOR CENTRAL FLORIDA
  
CITY           SKY/WX    TMP DP  RH WIND       PRES   REMARKS
OCALA          CLOUDY    75  66  73 E5        29.93S                  
LEESBURG       LGT RAIN  72  70  93 SW16G23   29.93S FOG              
SANFORD        LGT RAIN  77  72  84 S12       29.94S                  
ORLANDO EXEC   LGT RAIN  76  73  91 SE9       29.94R                  
ORLANDO INTL   CLOUDY    75  72  90 SE8       29.95R                  
KISSIMMEE      CLOUDY    76  72  87 SE10      29.95S                  
WINTER HAVEN   FAIR      79  71  76 SE13G21   29.95R                  
LAKELAND       CLOUDY    77  70  78 S7        29.95R                  
BARTOW         MOCLDY    77  70  78 SE12G18   29.93S                  
SEBRING        FAIR      77  70  78 SE12      29.96R                  
OKEECHOBEE     FAIR      77  70  78 SE8G17    29.95S                  

$$
FLZ041-047-054-059-064-141-147-190400-
EAST CENTRAL FLORIDA
  
CITY           SKY/WX    TMP DP  RH WIND       PRES   REMARKS
DAYTONA BEACH  MOCLDY    77  73  87 SE10G18   29.93F                  
DELAND         FAIR      77  70  78 SE13      29.93F                  
JFK SPACE CTR  CLOUDY    77  72  84 S10G21    29.95S                  
CAPE CANAVERAL MOCLDY    77  70  79 S14       29.94F                  
PATRICK AFB    FAIR      77  77  99 SE13G21   29.96R                  
MELBOURNE      FAIR      78  71  79 SE8       29.96R                  
VERO BEACH     FAIR      78  71  79 S12       29.96R                  
FT PIERCE      FAIR      78  70  76 SE15      29.96R                  
STUART         FAIR      79  72  78 SE10G17   29.98R                  

STATION/POSITION SKY/WX   TEMP    WIND        PRES    WAVE   SWELL
                          AIR SEA DIR/SP/G            HT/PER HT/PER
                          (F)     (DEG/KT/KT) (MB)    (FT/S) (FT/S)
28.5N   80.2W              78     160/ 16/ 17 1015.2R   5/ 6   2/ 8
28.9N   78.5W              77 77  130/ 19/ 25 1016.9R   6/ 6   2/14
TRIDENT PIER               76 78  140/ 12/ 16 1015.8R
28.4N   80.5W                 77                N/A     4/ 5
27.5N   80.2W                 76                N/A     5/ 5

$$
FLZ050-056-061-142-242-148-248-149-249-151-251-155-255-
160-260-190400-
WEST CENTRAL FLORIDA
  
CITY           SKY/WX    TMP DP  RH WIND       PRES   REMARKS
CRYSTAL RIVER  FAIR     N/A N/A N/A CALM      29.91F                  
INVERNESS      MOCLDY    73  73 100 CALM      29.93R                  
BROOKSVILLE    MOCLDY    74  65  73 SE3       29.93S                  
CLEARWATER AIR FAIR      77  70  78 S9        29.93R                  
ST PETE CLEARW FAIR      78  69  73 S16       29.92S                  
TAMPA INTL     FAIR      78  71  79 S15       29.93R                  
TAMPA EXEC     MOCLDY    75  70  83 S3        29.93S                  
PLANT CITY     MOCLDY    77  72  83 SE5       29.95S                  
MACDILL AFB    FAIR      78  72  80 S8        29.92S                  
PETER O KNIGHT MOCLDY    79  73  83 S9        29.93S                  
ST PETERSBURG    N/A    N/A N/A N/A MISG      29.91R                  
SARASOTA       FAIR      78  72  81 S12       29.92R                  
VENICE         FAIR      79  75  89 S12G17    29.94R                  

STATION/POSITION SKY/WX   TEMP    WIND        PRES    WAVE   SWELL
                          AIR SEA DIR/SP/G            HT/PER HT/PER
                          (F)     (DEG/KT/KT) (MB)    (FT/S) (FT/S)
27.3N   84.2W                 76                N/A     3/ 6
CLEARWATER BEACH           77 79  190/ 15/ 17 1013.2R
MIDDLE TAMPA BAY           78     210/ 16/ 18 1013.2R
VENICE                     79 78  160/ 14/ 16 1013.6R

$$
FLZ066-069-070-075>078-162-262-165-265-190400-
SOUTHWEST FLORIDA AND KEYS
  
CITY           SKY/WX    TMP DP  RH WIND       PRES   REMARKS
FT MYERS       FAIR      77  69  76 S8        29.93R                  
SOUTHWEST INTL FAIR      77  68  73 S10       29.94R                  
NAPLES         FAIR      79  73  82 SE10      29.94R                  
MARCO ISLAND   FAIR      79  72  79 SE15G22   29.96R                  
IMMOKALEE      FAIR      73  70  88 S5        29.93R                  
MARATHON       FAIR      83  73  72 SE13G21   29.95R                  
KEY WEST NAS   CLOUDY    82  73  74 SE17      29.95R                  
KEY WEST INTL  CLOUDY    81  74  79 SE16      29.96R                  

STATION/POSITION SKY/WX   TEMP    WIND        PRES    WAVE   SWELL
                          AIR SEA DIR/SP/G            HT/PER HT/PER
                          (F)     (DEG/KT/KT) (MB)    (FT/S) (FT/S)
NAPLES                     80 81  120/  6/ 10 1014.0R
DRY TORTUGAS               80     140/ 21/ 23 1013.4R
SAND KEY                   79                 1014.0R
SOMBRERO KEY               80                 1013.6R

$$
FLZ067-068-071>074-168-172>174-190400-
SOUTHEAST FLORIDA 
  
CITY           SKY/WX    TMP DP  RH WIND       PRES   REMARKS
W PALM BEACH   FAIR      76  69  79 SE23      29.98R                  
BOCA RATON     PTCLDY    77  72  83 SE8       29.98R                  
FT LAUDER-EXEC FAIR      78  73  84 E9        29.97S                  
FT LAUDERDALE  FAIR      78  73  84 SE9       29.96S                  
POMPANO BEACH  FAIR      78  73  84 SE9       29.97S                  
PEMBROKE PINES FAIR      78  72  81 E10       29.98S                  
OPA LOCKA      FAIR      79  72  79 SE9       29.97S                  
MIAMI          FAIR      79  72  79 SE14      29.97R                  
WEST KENDALL   FAIR      80  71  74 SE10      29.96R                  
HOMESTEAD      FAIR      79  71  76 SE9       29.96R                  

STATION/POSITION SKY/WX   TEMP    WIND        PRES    WAVE   SWELL
                          AIR SEA DIR/SP/G            HT/PER HT/PER
                          (F)     (DEG/KT/KT) (MB)    (FT/S) (FT/S)
VIRGINIA KEY               80 82  110/ 11/ 13 1014.2R
LAKE WORTH                 76 80  130/ 22/ 30 1016.3R
SETTLEMENT POINT           78     130/ 10/ 14 1016.0R

$$